GFSSE_prec_precacc12_342.txt.gz
Total_Precipitation_Accumulation
0.00 0.00 0.00 0.00 0.00 0.00 0.00 0.00 0.00 0.00 0.00 0.01 0.01 0.01 0.03 0.01 0.00 0.03 0.01 0.05 0.12 0.08 0.05 0.00 0.01 0.00 0.00 0.00 0.00 0.00 0.00 0.00 0.00 0.00 0.01 0.03 0.03 0.03 0.03 0.02 0.02 0.04 0.08
0.01 0.00 0.00 0.00 0.00 0.00 0.00 0.00 0.00 0.00 0.00 0.00 0.02 0.05 0.11 0.03 0.01 0.00 0.02 0.03 0.06 0.08 0.01 0.00 0.00 0.00 0.00 0.00 0.00 0.00 0.00 0.00 0.01 0.03 0.06 0.07 0.06 0.03 0.02 0.01 0.01 0.01 0.01
0.00 0.00 0.00 0.00 0.00 0.00 0.00 0.00 0.00 0.00 0.00 0.01 0.03 0.08 0.13 0.08 0.01 0.02 0.03 0.02 0.09 0.04 0.00 0.00 0.00 0.00 0.00 0.00 0.00 0.00 0.00 0.01 0.02 0.03 0.03 0.01 0.03 0.02 0.02 0.01 0.01 0.01 0.02
0.00 0.00 0.00 0.00 0.00 0.00 0.00 0.00 0.00 0.01 0.04 0.03 0.06 0.12 0.14 0.16 0.11 0.09 0.01 0.03 0.11 0.06 0.00 0.00 0.00 0.00 0.00 0.00 0.00 0.00 0.00 0.01 0.01 0.01 0.01 0.01 0.02 0.04 0.04 0.05 0.05 0.05 0.04
0.00 0.00 0.00 0.00 0.00 0.00 0.00 0.00 0.00 0.02 0.07 0.04 0.09 0.14 0.21 0.20 0.08 0.11 0.04 0.06 0.06 0.13 0.02 0.00 0.00 0.00 0.00 0.00 0.00 0.00 0.00 0.01 0.00 0.00 0.00 0.01 0.03 0.04 0.03 0.02 0.01 0.01 0.01
0.00 0.00 0.00 0.00 0.00 0.00 0.00 0.00 0.00 0.02 0.06 0.03 0.09 0.20 0.38 0.44 0.19 0.14 0.03 0.06 0.08 0.13 0.02 0.00 0.00 0.00 0.00 0.00 0.00 0.00 0.01 0.01 0.00 0.00 0.01 0.02 0.01 0.01 0.01 0.01 0.01 0.01 0.01
0.00 0.00 0.00 0.00 0.00 0.00 0.00 0.00 0.01 0.01 0.00 0.02 0.10 0.19 0.46 0.71 0.51 0.36 0.07 0.07 0.08 0.07 0.01 0.00 0.00 0.00 0.00 0.00 0.00 0.00 0.00 0.00 0.00 0.00 0.00 0.00 0.01 0.02 0.01 0.01 0.00 0.00 0.00
0.00 0.00 0.00 0.00 0.00 0.00 0.00 0.00 0.00 0.00 0.00 0.02 0.09 0.20 0.48 0.52 0.42 0.54 0.28 0.08 0.11 0.08 0.00 0.00 0.00 0.00 0.00 0.00 0.00 0.00 0.00 0.00 0.00 0.00 0.00 0.00 0.01 0.01 0.01 0.01 0.00 0.00 0.00
0.00 0.00 0.00 0.00 0.00 0.00 0.00 0.00 0.00 0.00 0.00 0.04 0.08 0.14 0.33 0.36 0.38 0.42 0.31 0.08 0.07 0.04 0.02 0.00 0.00 0.00 0.00 0.00 0.00 0.00 0.00 0.00 0.00 0.00 0.00 0.00 0.00 0.00 0.00 0.00 0.00 0.00 0.00
0.00 0.00 0.00 0.00 0.00 0.00 0.00 0.00 0.00 0.00 0.00 0.04 0.15 0.14 0.22 0.41 0.48 0.45 0.40 0.11 0.04 0.02 0.02 0.00 0.00 0.00 0.00 0.00 0.00 0.00 0.00 0.00 0.00 0.00 0.00 0.00 0.00 0.00 0.00 0.00 0.00 0.00 0.00
0.00 0.00 0.00 0.00 0.00 0.00 0.00 0.00 0.00 0.00 0.01 0.07 0.21 0.33 0.33 0.29 0.53 0.55 0.62 0.30 0.05 0.01 0.01 0.00 0.00 0.00 0.00 0.00 0.00 0.00 0.00 0.00 0.00 0.00 0.00 0.01 0.00 0.00 0.00 0.00 0.00 0.00 0.00
0.02 0.01 0.00 0.00 0.00 0.00 0.00 0.01 0.00 0.00 0.00 0.03 0.06 0.18 0.28 0.26 0.37 0.49 0.61 0.39 0.04 0.01 0.00 0.00 0.00 0.00 0.00 0.01 0.01 0.00 0.00 0.00 0.00 0.00 0.00 0.00 0.00 0.00 0.00 0.00 0.00 0.00 0.00
0.08 0.04 0.01 0.00 0.01 0.00 0.01 0.02 0.01 0.00 0.00 0.01 0.05 0.22 0.27 0.45 0.47 0.45 0.41 0.16 0.02 0.01 0.00 0.00 0.00 0.00 0.01 0.02 0.01 0.01 0.00 0.00 0.00 0.00 0.00 0.00 0.00 0.00 0.00 0.00 0.00 0.00 0.00
0.05 0.04 0.04 0.01 0.01 0.00 0.00 0.02 0.01 0.01 0.02 0.05 0.03 0.21 0.26 0.36 0.43 0.45 0.28 0.06 0.02 0.00 0.00 0.00 0.00 0.00 0.01 0.04 0.03 0.01 0.00 0.00 0.00 0.00 0.00 0.00 0.00 0.00 0.00 0.00 0.00 0.00 0.00
0.03 0.04 0.04 0.01 0.02 0.01 0.01 0.05 0.02 0.02 0.03 0.03 0.04 0.09 0.31 0.44 0.49 0.45 0.32 0.16 0.07 0.00 0.00 0.00 0.00 0.00 0.04 0.05 0.03 0.00 0.00 0.00 0.00 0.00 0.00 0.00 0.00 0.00 0.00 0.00 0.00 0.00 0.00
0.02 0.05 0.10 0.01 0.01 0.02 0.02 0.07 0.05 0.03 0.07 0.02 0.04 0.08 0.23 0.37 0.65 0.57 0.35 0.24 0.20 0.07 0.01 0.00 0.00 0.01 0.07 0.05 0.01 0.00 0.00 0.00 0.00 0.00 0.00 0.00 0.00 0.00 0.00 0.00 0.00 0.00 0.00
0.00 0.07 0.07 0.01 0.02 0.03 0.03 0.10 0.08 0.04 0.06 0.05 0.07 0.11 0.32 0.47 0.46 0.52 0.54 0.28 0.27 0.22 0.09 0.04 0.06 0.08 0.11 0.04 0.00 0.00 0.00 0.00 0.00 0.00 0.00 0.00 0.00 0.00 0.00 0.00 0.00 0.00 0.00
0.00 0.01 0.01 0.01 0.03 0.05 0.04 0.09 0.07 0.07 0.08 0.13 0.12 0.12 0.28 0.82 0.76 0.54 0.68 0.55 0.33 0.27 0.20 0.20 0.17 0.14 0.08 0.02 0.00 0.00 0.00 0.00 0.00 0.00 0.00 0.00 0.00 0.00 0.00 0.00 0.00 0.00 0.00
0.00 0.01 0.03 0.02 0.05 0.13 0.16 0.11 0.22 0.14 0.14 0.15 0.46 0.38 0.32 0.65 0.90 0.68 0.58 0.58 0.47 0.27 0.23 0.26 0.19 0.16 0.06 0.04 0.01 0.00 0.00 0.00 0.00 0.00 0.00 0.00 0.00 0.00 0.00 0.00 0.00 0.00 0.00
0.00 0.00 0.02 0.04 0.07 0.15 0.49 0.31 0.19 0.13 0.12 0.12 0.35 0.77 0.67 0.80 0.82 0.54 0.26 0.41 0.44 0.42 0.30 0.43 0.27 0.20 0.09 0.04 0.02 0.01 0.00 0.00 0.00 0.00 0.00 0.00 0.00 0.00 0.00 0.00 0.00 0.00 0.00
0.00 0.00 0.04 0.09 0.12 0.21 0.29 0.19 0.11 0.12 0.19 0.15 0.40 0.76 0.70 0.84 1.08 0.73 0.25 0.17 0.29 0.34 0.21 0.27 0.26 0.19 0.11 0.04 0.05 0.01 0.00 0.00 0.00 0.00 0.00 0.00 0.00 0.00 0.00 0.00 0.00 0.00 0.00
0.00 0.01 0.04 0.09 0.15 0.21 0.20 0.23 0.17 0.19 0.24 0.28 0.35 0.51 0.46 0.51 0.66 0.70 0.29 0.08 0.20 0.37 0.24 0.18 0.20 0.10 0.12 0.07 0.04 0.02 0.02 0.01 0.00 0.00 0.00 0.00 0.00 0.00 0.00 0.00 0.00 0.00 0.00
0.00 0.06 0.05 0.09 0.17 0.19 0.22 0.48 0.61 0.50 0.41 0.30 0.20 0.21 0.31 0.35 0.40 0.34 0.17 0.08 0.14 0.43 0.35 0.16 0.14 0.10 0.04 0.16 0.03 0.01 0.01 0.00 0.00 0.00 0.00 0.00 0.00 0.00 0.00 0.00 0.00 0.00 0.00
0.00 0.09 0.09 0.10 0.16 0.31 0.35 0.43 0.64 0.40 0.17 0.17 0.19 0.25 0.22 0.40 0.32 0.33 0.20 0.13 0.17 0.53 0.53 0.32 0.12 0.08 0.03 0.07 0.11 0.02 0.00 0.00 0.00 0.00 0.00 0.00 0.00 0.00 0.00 0.00 0.00 0.00 0.00
0.00 0.10 0.18 0.13 0.20 0.30 0.38 0.45 0.55 0.55 0.41 0.19 0.15 0.21 0.23 0.19 0.18 0.19 0.16 0.17 0.24 0.50 0.69 0.55 0.35 0.15 0.07 0.03 0.06 0.06 0.01 0.00 0.00 0.00 0.00 0.00 0.00 0.00 0.00 0.00 0.00 0.00 0.00
0.00 0.02 0.16 0.27 0.24 0.35 0.36 0.40 0.45 0.39 0.53 0.43 0.18 0.16 0.18 0.17 0.15 0.10 0.12 0.12 0.16 0.34 0.52 0.58 0.48 0.28 0.11 0.06 0.03 0.05 0.07 0.02 0.00 0.00 0.00 0.00 0.00 0.00 0.00 0.00 0.00 0.00 0.00

GFSSE_prec_precacc12_345.txt.gz
Total_Precipitation_Accumulation
0.00 0.00 0.00 0.00 0.00 0.00 0.00 0.00 0.00 0.00 0.00 0.01 0.01 0.00 0.01 0.00 0.01 0.01 0.02 0.11 0.18 0.05 0.04 0.00 0.00 0.00 0.00 0.00 0.00 0.00 0.00 0.00 0.00 0.01 0.02 0.04 0.04 0.04 0.03 0.02 0.03 0.05 0.08
0.00 0.00 0.00 0.00 0.00 0.00 0.00 0.00 0.00 0.00 0.00 0.00 0.02 0.03 0.06 0.02 0.00 0.02 0.06 0.09 0.11 0.09 0.02 0.00 0.00 0.00 0.00 0.00 0.00 0.00 0.00 0.00 0.02 0.04 0.07 0.08 0.06 0.03 0.03 0.02 0.02 0.02 0.01
0.00 0.00 0.00 0.00 0.00 0.00 0.00 0.00 0.00 0.00 0.00 0.01 0.03 0.06 0.07 0.05 0.00 0.03 0.13 0.08 0.11 0.05 0.02 0.00 0.00 0.00 0.00 0.00 0.00 0.00 0.00 0.01 0.02 0.03 0.03 0.02 0.03 0.03 0.02 0.01 0.02 0.01 0.02
0.00 0.00 0.00 0.00 0.00 0.00 0.00 0.00 0.00 0.00 0.01 0.02 0.05 0.09 0.09 0.10 0.05 0.05 0.08 0.14 0.11 0.01 0.01 0.00 0.00 0.00 0.00 0.00 0.00 0.00 0.00 0.00 0.01 0.01 0.01 0.01 0.02 0.03 0.04 0.05 0.06 0.05 0.03
0.00 0.00 0.00 0.00 0.00 0.00 0.00 0.00 0.00 0.01 0.04 0.03 0.09 0.12 0.17 0.16 0.05 0.08 0.07 0.19 0.10 0.04 0.01 0.00 0.00 0.00 0.00 0.00 0.00 0.00 0.00 0.00 0.00 0.00 0.00 0.02 0.04 0.06 0.05 0.03 0.01 0.01 0.01
0.00 0.00 0.00 0.00 0.00 0.00 0.00 0.00 0.00 0.00 0.04 0.03 0.11 0.22 0.37 0.42 0.19 0.20 0.04 0.14 0.10 0.04 0.02 0.01 0.01 0.00 0.00 0.00 0.00 0.00 0.00 0.00 0.00 0.00 0.01 0.01 0.02 0.01 0.01 0.01 0.01 0.01 0.01
0.00 0.00 0.00 0.00 0.00 0.00 0.00 0.00 0.00 0.00 0.01 0.04 0.11 0.21 0.51 0.82 0.75 0.62 0.18 0.15 0.06 0.02 0.01 0.01 0.01 0.00 0.00 0.00 0.00 0.00 0.00 0.00 0.00 0.00 0.00 0.00 0.01 0.02 0.01 0.01 0.01 0.00 0.00
0.00 0.00 0.00 0.00 0.00 0.00 0.00 0.00 0.00 0.00 0.01 0.06 0.14 0.25 0.57 0.83 0.68 0.87 0.59 0.25 0.05 0.01 0.00 0.01 0.00 0.00 0.00 0.00 0.00 0.00 0.00 0.00 0.00 0.00 0.00 0.00 0.01 0.01 0.01 0.01 0.00 0.00 0.00
0.00 0.00 0.00 0.00 0.00 0.00 0.00 0.00 0.00 0.00 0.01 0.15 0.22 0.25 0.44 0.52 0.43 0.54 0.59 0.36 0.04 0.00 0.00 0.00 0.00 0.00 0.00 0.00 0.00 0.00 0.00 0.00 0.00 0.00 0.00 0.00 0.01 0.00 0.00 0.00 0.00 0.00 0.00
0.00 0.00 0.00 0.00 0.00 0.00 0.00 0.00 0.00 0.00 0.01 0.15 0.30 0.32 0.30 0.47 0.57 0.65 0.77 0.45 0.06 0.00 0.00 0.00 0.00 0.00 0.00 0.00 0.00 0.00 0.00 0.00 0.00 0.00 0.00 0.00 0.00 0.00 0.00 0.00 0.00 0.00 0.01
0.01 0.00 0.00 0.00 0.00 0.00 0.00 0.01 0.00 0.01 0.02 0.19 0.34 0.52 0.36 0.30 0.59 0.79 1.06 0.68 0.05 0.00 0.00 0.00 0.00 0.00 0.00 0.00 0.00 0.00 0.00 0.00 0.00 0.00 0.00 0.01 0.00 0.00 0.00 0.00 0.00 0.00 0.01
0.03 0.01 0.01 0.01 0.01 0.00 0.00 0.01 0.01 0.01 0.02 0.09 0.12 0.23 0.27 0.31 0.47 0.73 0.98 0.81 0.06 0.00 0.00 0.00 0.00 0.00 0.00 0.01 0.01 0.00 0.00 0.00 0.00 0.00 0.00 0.00 0.00 0.00 0.00 0.00 0.00 0.00 0.00
0.09 0.04 0.02 0.03 0.02 0.01 0.01 0.01 0.00 0.01 0.01 0.02 0.09 0.15 0.22 0.46 0.73 0.83 0.76 0.55 0.07 0.02 0.01 0.00 0.00 0.00 0.01 0.01 0.00 0.00 0.00 0.00 0.00 0.00 0.00 0.00 0.00 0.00 0.00 0.00 0.00 0.00 0.00
0.05 0.04 0.04 0.01 0.02 0.02 0.01 0.02 0.01 0.01 0.01 0.00 0.04 0.16 0.23 0.37 0.66 0.99 0.72 0.30 0.05 0.02 0.01 0.00 0.00 0.00 0.01 0.01 0.00 0.00 0.00 0.00 0.00 0.00 0.00 0.00 0.00 0.00 0.00 0.00 0.00 0.00 0.01
0.03 0.04 0.04 0.01 0.02 0.03 0.02 0.06 0.03 0.02 0.02 0.01 0.01 0.07 0.33 0.48 0.62 0.81 0.67 0.35 0.10 0.01 0.00 0.00 0.00 0.00 0.02 0.02 0.00 0.00 0.00 0.00 0.00 0.00 0.00 0.00 0.00 0.00 0.00 0.00 0.00 0.00 0.01
0.02 0.05 0.08 0.01 0.00 0.02 0.03 0.10 0.07 0.04 0.03 0.02 0.02 0.07 0.22 0.42 0.72 0.76 0.62 0.41 0.22 0.07 0.01 0.00 0.00 0.00 0.02 0.01 0.00 0.00 0.00 0.00 0.00 0.00 0.00 0.00 0.00 0.00 0.00 0.00 0.00 0.00 0.00
0.00 0.07 0.06 0.01 0.01 0.02 0.04 0.15 0.11 0.07 0.06 0.05 0.05 0.09 0.35 0.51 0.57 0.67 0.80 0.49 0.30 0.23 0.09 0.04 0.04 0.02 0.02 0.01 0.00 0.00 0.00 0.00 0.00 0.00 0.00 0.00 0.00 0.00 0.00 0.00 0.00 0.00 0.00
0.00 0.01 0.01 0.01 0.03 0.04 0.05 0.13 0.12 0.09 0.08 0.10 0.07 0.10 0.31 0.87 0.88 0.76 0.89 0.78 0.43 0.33 0.27 0.24 0.23 0.09 0.03 0.01 0.00 0.00 0.00 0.00 0.00 0.00 0.00 0.00 0.00 0.00 0.00 0.00 0.00 0.00 0.00
0.00 0.01 0.03 0.02 0.05 0.09 0.14 0.15 0.25 0.15 0.14 0.12 0.13 0.16 0.26 0.65 0.97 1.11 1.07 0.94 0.72 0.41 0.36 0.49 0.40 0.20 0.05 0.03 0.01 0.00 0.00 0.00 0.00 0.00 0.00 0.00 0.00 0.00 0.00 0.00 0.00 0.00 0.00
0.00 0.00 0.02 0.04 0.07 0.14 0.27 0.30 0.23 0.17 0.15 0.11 0.10 0.34 0.51 0.82 0.87 0.91 0.96 0.81 0.71 0.55 0.37 0.61 0.59 0.36 0.16 0.07 0.01 0.00 0.00 0.00 0.00 0.00 0.00 0.00 0.00 0.00 0.00 0.00 0.00 0.00 0.00
0.00 0.00 0.04 0.09 0.12 0.21 0.19 0.15 0.16 0.16 0.24 0.16 0.15 0.29 0.56 0.88 1.19 1.09 0.91 0.66 0.58 0.59 0.39 0.46 0.73 0.44 0.30 0.08 0.06 0.01 0.00 0.00 0.00 0.00 0.00 0.00 0.00 0.00 0.00 0.00 0.00 0.00 0.00
0.00 0.01 0.04 0.09 0.15 0.21 0.17 0.13 0.19 0.22 0.28 0.28 0.22 0.21 0.33 0.49 0.75 0.92 0.80 0.50 0.40 0.42 0.45 0.48 0.80 0.41 0.36 0.13 0.05 0.02 0.02 0.01 0.00 0.00 0.00 0.00 0.00 0.00 0.00 0.00 0.00 0.00 0.00
0.00 0.01 0.04 0.09 0.17 0.19 0.22 0.28 0.32 0.45 0.45 0.31 0.19 0.13 0.18 0.25 0.41 0.44 0.43 0.29 0.14 0.35 0.31 0.35 0.67 0.34 0.14 0.25 0.06 0.02 0.01 0.00 0.00 0.00 0.00 0.00 0.00 0.00 0.00 0.00 0.00 0.00 0.00
0.00 0.00 0.02 0.08 0.16 0.31 0.35 0.34 0.35 0.36 0.25 0.23 0.21 0.26 0.17 0.30 0.39 0.42 0.29 0.16 0.12 0.26 0.42 0.35 0.50 0.42 0.12 0.13 0.14 0.03 0.00 0.00 0.00 0.00 0.00 0.00 0.00 0.00 0.00 0.00 0.00 0.00 0.00
0.00 0.00 0.01 0.05 0.18 0.30 0.38 0.45 0.39 0.36 0.36 0.21 0.21 0.27 0.25 0.24 0.26 0.38 0.31 0.15 0.13 0.26 0.48 0.55 0.53 0.39 0.28 0.11 0.08 0.07 0.01 0.00 0.00 0.00 0.00 0.00 0.00 0.00 0.00 0.00 0.00 0.00 0.00
0.00 0.00 0.00 0.03 0.17 0.34 0.36 0.40 0.44 0.29 0.41 0.47 0.28 0.25 0.25 0.19 0.17 0.23 0.45 0.33 0.11 0.23 0.44 0.58 0.52 0.37 0.24 0.18 0.05 0.05 0.07 0.02 0.00 0.00 0.00 0.00 0.00 0.00 0.00 0.00 0.00 0.00 0.00

GFSSE_prec_precacc12_348.txt.gz
Total_Precipitation_Accumulation
0.00 0.00 0.00 0.00 0.00 0.00 0.00 0.00 0.00 0.00 0.00 0.00 0.00 0.00 0.00 0.00 0.01 0.01 0.04 0.16 0.23 0.13 0.13 0.13 0.01 0.00 0.00 0.00 0.00 0.00 0.00 0.00 0.00 0.01 0.02 0.05 0.04 0.04 0.03 0.03 0.05 0.05 0.07
0.00 0.00 0.00 0.00 0.00 0.00 0.00 0.00 0.00 0.00 0.00 0.00 0.00 0.02 0.05 0.01 0.03 0.04 0.11 0.15 0.18 0.18 0.11 0.04 0.00 0.00 0.00 0.00 0.00 0.00 0.00 0.01 0.01 0.03 0.06 0.07 0.05 0.04 0.02 0.02 0.02 0.02 0.01
0.00 0.00 0.00 0.00 0.00 0.00 0.00 0.00 0.00 0.00 0.00 0.00 0.00 0.03 0.06 0.04 0.03 0.07 0.20 0.20 0.22 0.14 0.07 0.02 0.00 0.00 0.00 0.00 0.00 0.00 0.00 0.01 0.02 0.02 0.03 0.02 0.04 0.03 0.02 0.01 0.02 0.01 0.02
0.00 0.00 0.00 0.00 0.00 0.00 0.00 0.00 0.00 0.00 0.01 0.02 0.04 0.07 0.06 0.05 0.03 0.08 0.12 0.23 0.22 0.05 0.05 0.02 0.01 0.00 0.00 0.00 0.00 0.00 0.00 0.00 0.01 0.01 0.00 0.01 0.02 0.03 0.03 0.05 0.05 0.04 0.02
0.00 0.00 0.00 0.00 0.00 0.00 0.00 0.00 0.00 0.00 0.01 0.06 0.10 0.11 0.15 0.08 0.04 0.11 0.12 0.25 0.15 0.06 0.02 0.01 0.01 0.00 0.00 0.00 0.00 0.00 0.00 0.00 0.00 0.00 0.00 0.02 0.04 0.06 0.05 0.02 0.01 0.00 0.00
0.00 0.00 0.00 0.00 0.00 0.00 0.00 0.00 0.00 0.00 0.01 0.04 0.14 0.20 0.32 0.30 0.15 0.25 0.10 0.20 0.14 0.07 0.06 0.01 0.01 0.00 0.00 0.00 0.00 0.00 0.00 0.00 0.00 0.00 0.00 0.02 0.03 0.02 0.01 0.01 0.00 0.00 0.00
0.00 0.00 0.00 0.00 0.00 0.00 0.00 0.01 0.02 0.01 0.01 0.05 0.14 0.26 0.53 0.80 0.86 0.83 0.40 0.31 0.19 0.07 0.05 0.01 0.01 0.00 0.00 0.00 0.00 0.00 0.00 0.00 0.00 0.00 0.00 0.00 0.01 0.02 0.01 0.01 0.01 0.00 0.00
0.01 0.00 0.00 0.00 0.00 0.00 0.01 0.02 0.03 0.03 0.03 0.07 0.19 0.31 0.60 0.99 0.92 1.11 0.81 0.55 0.21 0.08 0.01 0.01 0.00 0.00 0.00 0.00 0.00 0.00 0.00 0.00 0.00 0.00 0.00 0.00 0.01 0.01 0.01 0.01 0.00 0.00 0.00
0.00 0.01 0.00 0.00 0.00 0.00 0.00 0.00 0.01 0.02 0.08 0.28 0.35 0.41 0.48 0.60 0.58 0.67 0.71 0.58 0.30 0.03 0.00 0.00 0.00 0.00 0.00 0.00 0.00 0.00 0.00 0.00 0.00 0.00 0.00 0.00 0.01 0.01 0.00 0.00 0.00 0.00 0.00
0.00 0.00 0.01 0.00 0.00 0.00 0.01 0.00 0.00 0.00 0.05 0.31 0.45 0.61 0.44 0.48 0.60 0.79 1.03 0.69 0.31 0.04 0.00 0.00 0.00 0.00 0.00 0.00 0.00 0.00 0.00 0.00 0.00 0.00 0.00 0.00 0.00 0.00 0.00 0.00 0.00 0.00 0.00
0.03 0.00 0.00 0.00 0.00 0.01 0.01 0.02 0.01 0.00 0.03 0.30 0.46 0.65 0.53 0.38 0.62 0.97 1.46 1.18 0.34 0.06 0.00 0.00 0.00 0.00 0.00 0.00 0.00 0.00 0.00 0.00 0.00 0.00 0.00 0.00 0.00 0.00 0.00 0.00 0.00 0.00 0.01
0.09 0.04 0.02 0.01 0.01 0.01 0.01 0.02 0.07 0.08 0.06 0.16 0.19 0.25 0.34 0.39 0.56 0.93 1.22 1.26 0.46 0.14 0.01 0.00 0.00 0.00 0.00 0.00 0.00 0.00 0.00 0.00 0.00 0.00 0.00 0.00 0.00 0.00 0.00 0.00 0.00 0.00 0.00
0.11 0.09 0.03 0.03 0.02 0.02 0.02 0.02 0.03 0.09 0.11 0.11 0.15 0.16 0.20 0.47 0.83 0.94 0.98 0.91 0.47 0.15 0.04 0.00 0.00 0.00 0.00 0.00 0.00 0.00 0.00 0.00 0.00 0.00 0.00 0.00 0.00 0.00 0.00 0.01 0.00 0.00 0.00
0.05 0.05 0.04 0.01 0.02 0.02 0.02 0.03 0.02 0.03 0.12 0.13 0.12 0.13 0.16 0.35 0.75 1.32 1.07 0.60 0.34 0.15 0.05 0.02 0.01 0.00 0.01 0.00 0.00 0.00 0.00 0.00 0.00 0.00 0.00 0.00 0.00 0.00 0.00 0.00 0.00 0.01 0.01
0.03 0.04 0.04 0.01 0.02 0.03 0.02 0.07 0.04 0.03 0.05 0.13 0.13 0.12 0.25 0.43 0.69 1.41 1.34 0.68 0.40 0.14 0.04 0.01 0.01 0.01 0.01 0.00 0.00 0.00 0.00 0.00 0.00 0.00 0.00 0.00 0.00 0.00 0.00 0.00 0.00 0.00 0.01
0.02 0.03 0.07 0.01 0.00 0.02 0.03 0.10 0.08 0.06 0.05 0.07 0.13 0.14 0.21 0.41 0.79 1.08 1.02 0.69 0.58 0.21 0.07 0.02 0.01 0.01 0.01 0.00 0.00 0.00 0.00 0.00 0.00 0.00 0.00 0.00 0.00 0.00 0.00 0.00 0.00 0.00 0.01
0.00 0.04 0.05 0.01 0.01 0.02 0.03 0.14 0.11 0.08 0.08 0.07 0.09 0.19 0.36 0.47 0.62 0.90 1.11 0.66 0.56 0.42 0.14 0.09 0.07 0.02 0.01 0.00 0.00 0.00 0.00 0.00 0.00 0.00 0.00 0.00 0.00 0.00 0.00 0.00 0.00 0.00 0.00
0.00 0.00 0.01 0.01 0.03 0.04 0.05 0.10 0.11 0.10 0.10 0.10 0.05 0.13 0.31 0.85 0.88 0.91 1.15 1.01 0.65 0.53 0.37 0.27 0.25 0.08 0.01 0.00 0.00 0.00 0.00 0.00 0.00 0.00 0.00 0.00 0.00 0.00 0.00 0.00 0.00 0.00 0.00
0.00 0.00 0.02 0.02 0.05 0.09 0.14 0.14 0.16 0.14 0.16 0.13 0.10 0.08 0.18 0.54 0.95 1.17 1.36 1.29 0.94 0.57 0.51 0.58 0.45 0.24 0.06 0.01 0.01 0.00 0.00 0.00 0.00 0.00 0.00 0.00 0.00 0.00 0.00 0.00 0.00 0.00 0.00
0.00 0.00 0.02 0.04 0.07 0.14 0.19 0.19 0.14 0.16 0.16 0.12 0.09 0.11 0.21 0.60 0.85 0.95 1.17 1.26 1.04 0.72 0.54 0.81 0.76 0.40 0.21 0.07 0.02 0.00 0.00 0.00 0.00 0.00 0.00 0.00 0.00 0.00 0.00 0.00 0.00 0.00 0.00
0.00 0.00 0.02 0.08 0.12 0.21 0.17 0.14 0.15 0.15 0.22 0.16 0.14 0.19 0.25 0.55 0.99 1.10 1.20 1.16 0.97 0.82 0.56 0.67 0.99 0.60 0.43 0.16 0.08 0.02 0.00 0.00 0.00 0.00 0.00 0.00 0.00 0.00 0.00 0.00 0.00 0.00 0.00
0.00 0.00 0.00 0.03 0.13 0.21 0.18 0.13 0.15 0.15 0.22 0.25 0.21 0.17 0.26 0.46 0.69 0.88 0.96 0.83 0.82 0.62 0.72 0.74 1.10 0.74 0.62 0.26 0.07 0.03 0.03 0.01 0.00 0.00 0.00 0.00 0.00 0.00 0.00 0.00 0.00 0.00 0.00
0.00 0.00 0.00 0.02 0.06 0.16 0.21 0.27 0.29 0.36 0.33 0.28 0.22 0.16 0.17 0.26 0.40 0.42 0.51 0.56 0.49 0.44 0.39 0.56 1.05 0.59 0.35 0.41 0.10 0.03 0.03 0.00 0.00 0.00 0.00 0.00 0.00 0.00 0.00 0.00 0.00 0.00 0.00
0.00 0.00 0.00 0.01 0.03 0.16 0.30 0.34 0.34 0.34 0.22 0.23 0.24 0.29 0.21 0.33 0.42 0.42 0.33 0.29 0.40 0.37 0.27 0.28 0.57 0.72 0.27 0.28 0.25 0.07 0.00 0.00 0.00 0.00 0.00 0.00 0.00 0.00 0.00 0.00 0.00 0.00 0.00
0.00 0.00 0.00 0.00 0.03 0.08 0.26 0.42 0.37 0.34 0.30 0.20 0.20 0.30 0.29 0.29 0.29 0.42 0.40 0.34 0.35 0.22 0.16 0.21 0.35 0.60 0.54 0.23 0.20 0.12 0.05 0.02 0.00 0.00 0.00 0.00 0.00 0.00 0.00 0.00 0.00 0.00 0.00
0.00 0.00 0.00 0.00 0.03 0.05 0.09 0.21 0.40 0.28 0.30 0.24 0.22 0.26 0.30 0.28 0.26 0.28 0.51 0.49 0.41 0.58 0.29 0.24 0.24 0.45 0.48 0.50 0.26 0.18 0.16 0.09 0.03 0.00 0.01 0.00 0.00 0.00 0.00 0.00 0.00 0.00 0.00

GFSSE_prec_precacc12_351.txt.gz
Total_Precipitation_Accumulation
0.00 0.00 0.00 0.00 0.00 0.00 0.00 0.00 0.00 0.00 0.00 0.00 0.00 0.00 0.00 0.00 0.01 0.01 0.13 0.31 0.42 0.33 0.20 0.16 0.02 0.00 0.00 0.00 0.00 0.00 0.00 0.00 0.00 0.01 0.02 0.04 0.03 0.03 0.03 0.05 0.06 0.05 0.05
0.00 0.00 0.00 0.00 0.00 0.00 0.00 0.00 0.00 0.00 0.00 0.00 0.00 0.00 0.00 0.01 0.03 0.04 0.16 0.25 0.31 0.25 0.18 0.30 0.05 0.00 0.00 0.00 0.00 0.00 0.00 0.01 0.01 0.01 0.04 0.05 0.05 0.03 0.03 0.03 0.02 0.01 0.01
0.00 0.00 0.00 0.00 0.00 0.00 0.00 0.00 0.00 0.00 0.00 0.00 0.00 0.01 0.05 0.04 0.03 0.11 0.25 0.28 0.35 0.19 0.12 0.19 0.03 0.01 0.00 0.00 0.00 0.00 0.00 0.01 0.01 0.01 0.02 0.03 0.05 0.03 0.01 0.01 0.01 0.01 0.01
0.00 0.00 0.00 0.00 0.00 0.00 0.00 0.00 0.00 0.00 0.00 0.00 0.03 0.06 0.06 0.06 0.05 0.14 0.23 0.33 0.35 0.16 0.12 0.07 0.03 0.00 0.00 0.00 0.00 0.00 0.00 0.00 0.00 0.00 0.00 0.01 0.03 0.03 0.03 0.03 0.03 0.02 0.00
0.02 0.01 0.00 0.00 0.01 0.01 0.01 0.00 0.00 0.00 0.01 0.05 0.08 0.09 0.08 0.07 0.08 0.16 0.21 0.41 0.31 0.14 0.05 0.05 0.01 0.00 0.00 0.00 0.00 0.00 0.00 0.00 0.00 0.00 0.00 0.01 0.04 0.07 0.04 0.02 0.00 0.00 0.00
0.08 0.10 0.00 0.00 0.01 0.01 0.03 0.04 0.02 0.01 0.02 0.04 0.11 0.17 0.21 0.17 0.17 0.30 0.14 0.38 0.25 0.10 0.10 0.02 0.01 0.00 0.00 0.00 0.00 0.00 0.00 0.00 0.00 0.00 0.00 0.02 0.03 0.02 0.01 0.01 0.00 0.00 0.00
0.10 0.12 0.10 0.01 0.01 0.02 0.03 0.06 0.09 0.09 0.06 0.09 0.11 0.20 0.42 0.55 0.78 0.89 0.55 0.57 0.42 0.12 0.08 0.02 0.01 0.00 0.00 0.00 0.00 0.00 0.00 0.00 0.00 0.00 0.00 0.01 0.02 0.01 0.00 0.00 0.00 0.00 0.00
0.12 0.09 0.14 0.11 0.06 0.02 0.02 0.03 0.06 0.10 0.11 0.10 0.19 0.23 0.52 0.91 0.91 1.21 1.01 0.82 0.50 0.27 0.05 0.02 0.00 0.00 0.00 0.00 0.00 0.00 0.00 0.00 0.00 0.00 0.00 0.00 0.01 0.01 0.01 0.01 0.00 0.00 0.00
0.05 0.05 0.05 0.07 0.06 0.04 0.02 0.00 0.01 0.04 0.12 0.34 0.40 0.41 0.44 0.57 0.49 0.63 0.81 0.78 0.58 0.27 0.04 0.01 0.00 0.00 0.00 0.00 0.00 0.00 0.00 0.00 0.00 0.00 0.00 0.00 0.01 0.01 0.01 0.00 0.00 0.00 0.00
0.00 0.01 0.01 0.01 0.01 0.03 0.07 0.04 0.00 0.00 0.06 0.33 0.43 0.65 0.44 0.36 0.44 0.76 1.10 0.85 0.56 0.31 0.03 0.00 0.00 0.00 0.00 0.00 0.00 0.00 0.00 0.00 0.00 0.00 0.00 0.00 0.00 0.00 0.01 0.00 0.00 0.01 0.01
0.03 0.00 0.00 0.00 0.00 0.01 0.01 0.10 0.04 0.01 0.02 0.25 0.42 0.61 0.48 0.37 0.45 0.80 1.48 1.40 0.72 0.43 0.05 0.00 0.00 0.00 0.00 0.00 0.00 0.00 0.00 0.00 0.00 0.00 0.00 0.00 0.00 0.00 0.01 0.01 0.00 0.01 0.01
0.10 0.04 0.03 0.02 0.01 0.01 0.01 0.03 0.13 0.17 0.15 0.23 0.23 0.30 0.34 0.37 0.49 0.89 1.32 1.47 0.89 0.64 0.13 0.00 0.00 0.00 0.00 0.00 0.00 0.00 0.00 0.00 0.00 0.00 0.00 0.00 0.00 0.00 0.01 0.01 0.00 0.00 0.01
0.15 0.10 0.06 0.06 0.04 0.02 0.02 0.02 0.04 0.16 0.24 0.27 0.31 0.31 0.21 0.30 0.67 0.92 1.09 1.08 0.74 0.62 0.18 0.01 0.00 0.00 0.00 0.00 0.00 0.00 0.00 0.00 0.00 0.00 0.00 0.00 0.00 0.00 0.00 0.01 0.01 0.01 0.01
0.06 0.05 0.05 0.02 0.02 0.03 0.02 0.03 0.02 0.04 0.21 0.25 0.28 0.31 0.25 0.18 0.61 1.31 1.28 0.91 0.58 0.47 0.25 0.04 0.01 0.00 0.00 0.00 0.00 0.00 0.00 0.00 0.00 0.00 0.00 0.00 0.00 0.00 0.00 0.01 0.01 0.01 0.01
0.01 0.03 0.03 0.01 0.02 0.03 0.02 0.06 0.06 0.03 0.05 0.19 0.27 0.28 0.31 0.18 0.50 1.46 1.68 0.83 0.62 0.52 0.25 0.06 0.02 0.01 0.01 0.00 0.00 0.00 0.00 0.00 0.00 0.00 0.00 0.00 0.00 0.00 0.00 0.01 0.01 0.01 0.01
0.00 0.00 0.03 0.01 0.00 0.01 0.03 0.10 0.08 0.07 0.10 0.12 0.24 0.32 0.35 0.29 0.41 0.97 1.25 0.90 0.88 0.64 0.35 0.06 0.02 0.03 0.01 0.00 0.00 0.00 0.00 0.00 0.00 0.00 0.00 0.00 0.00 0.00 0.01 0.01 0.01 0.01 0.01
0.00 0.00 0.00 0.01 0.01 0.02 0.02 0.13 0.11 0.07 0.09 0.10 0.12 0.35 0.46 0.30 0.31 0.70 1.17 0.76 0.76 0.76 0.50 0.21 0.12 0.04 0.02 0.01 0.00 0.00 0.00 0.00 0.00 0.00 0.00 0.00 0.00 0.00 0.00 0.01 0.01 0.01 0.01
0.00 0.00 0.00 0.01 0.03 0.04 0.05 0.09 0.11 0.08 0.08 0.11 0.06 0.12 0.36 0.45 0.60 0.87 1.21 1.08 0.73 0.77 0.70 0.45 0.31 0.08 0.01 0.02 0.01 0.00 0.00 0.00 0.00 0.00 0.00 0.00 0.00 0.00 0.00 0.00 0.00 0.00 0.00
0.00 0.00 0.00 0.01 0.05 0.08 0.11 0.12 0.14 0.10 0.14 0.16 0.14 0.06 0.16 0.37 0.73 1.12 1.35 1.43 1.28 0.92 0.88 0.80 0.52 0.25 0.05 0.01 0.02 0.01 0.01 0.00 0.00 0.00 0.00 0.00 0.00 0.00 0.00 0.00 0.00 0.00 0.00
0.00 0.00 0.00 0.00 0.05 0.12 0.13 0.16 0.12 0.11 0.12 0.12 0.11 0.14 0.15 0.32 0.55 0.86 1.24 1.47 1.54 1.12 1.00 1.14 0.91 0.44 0.24 0.09 0.02 0.02 0.01 0.00 0.00 0.00 0.00 0.00 0.00 0.00 0.00 0.00 0.00 0.00 0.00
0.00 0.00 0.00 0.01 0.03 0.08 0.13 0.12 0.12 0.11 0.16 0.13 0.13 0.22 0.24 0.34 0.62 0.90 1.21 1.29 1.33 1.34 0.93 0.96 1.30 0.80 0.52 0.25 0.09 0.04 0.01 0.00 0.00 0.00 0.00 0.00 0.00 0.00 0.00 0.00 0.00 0.00 0.00
0.00 0.00 0.00 0.00 0.01 0.04 0.07 0.09 0.11 0.10 0.13 0.13 0.12 0.16 0.28 0.35 0.44 0.66 0.90 0.91 0.97 0.89 1.06 0.96 1.35 1.07 0.84 0.35 0.11 0.04 0.04 0.01 0.00 0.00 0.00 0.00 0.00 0.00 0.00 0.00 0.00 0.00 0.00
0.00 0.00 0.00 0.00 0.01 0.02 0.04 0.11 0.20 0.25 0.20 0.17 0.16 0.14 0.17 0.27 0.37 0.43 0.54 0.62 0.66 0.63 0.58 0.70 1.22 0.80 0.58 0.44 0.16 0.06 0.05 0.01 0.00 0.00 0.00 0.00 0.00 0.00 0.00 0.00 0.00 0.00 0.00
0.00 0.00 0.00 0.00 0.00 0.02 0.03 0.11 0.23 0.24 0.16 0.20 0.24 0.23 0.18 0.32 0.41 0.45 0.37 0.32 0.49 0.62 0.53 0.48 0.78 0.91 0.42 0.39 0.39 0.13 0.02 0.02 0.02 0.03 0.00 0.00 0.00 0.00 0.00 0.00 0.00 0.00 0.00
0.00 0.00 0.00 0.00 0.00 0.01 0.03 0.06 0.16 0.21 0.19 0.15 0.15 0.23 0.24 0.29 0.31 0.48 0.43 0.35 0.40 0.41 0.53 0.41 0.42 0.79 0.72 0.29 0.27 0.20 0.12 0.06 0.05 0.04 0.01 0.00 0.00 0.00 0.00 0.00 0.00 0.00 0.00
0.00 0.00 0.00 0.00 0.00 0.00 0.03 0.04 0.08 0.12 0.19 0.20 0.16 0.19 0.26 0.25 0.32 0.38 0.59 0.54 0.52 0.77 0.56 0.44 0.24 0.46 0.55 0.57 0.35 0.33 0.27 0.15 0.09 0.06 0.07 0.00 0.00 0.00 0.00 0.00 0.00 0.00 0.00